Year,Month,Day,Hour,Minute,Value (Times are PST for temperature in C)
2009,07,05,00,00,17.70
2009,07,05,00,01,17.70
2009,07,05,00,02,17.70
2009,07,05,00,03,17.70
2009,07,05,00,04,17.70
2009,07,05,00,05,17.60
2009,07,05,00,06,17.60
2009,07,05,00,07,17.60
2009,07,05,00,08,17.60
2009,07,05,00,09,17.60
2009,07,05,00,10,17.60
2009,07,05,00,11,17.60
2009,07,05,00,12,17.60
2009,07,05,00,13,17.60
2009,07,05,00,14,17.60
2009,07,05,00,15,17.60
2009,07,05,00,16,17.60
2009,07,05,00,17,17.60
2009,07,05,00,18,17.50
2009,07,05,00,19,17.50
2009,07,05,00,20,17.40
2009,07,05,00,21,17.40
2009,07,05,00,22,17.30
2009,07,05,00,23,17.30
2009,07,05,00,24,17.30
2009,07,05,00,25,17.20
2009,07,05,00,26,17.10
2009,07,05,00,27,17.10
2009,07,05,00,28,17.00
2009,07,05,00,29,17.00
2009,07,05,00,30,16.90
2009,07,05,00,31,16.90
2009,07,05,00,32,16.80
2009,07,05,00,33,16.80
2009,07,05,00,34,16.80
2009,07,05,00,35,16.70
2009,07,05,00,36,16.70
2009,07,05,00,37,16.70
2009,07,05,00,38,16.70
2009,07,05,00,39,16.70
2009,07,05,00,40,16.70
2009,07,05,00,41,16.70
2009,07,05,00,42,16.70
2009,07,05,00,43,16.70
2009,07,05,00,44,16.70
2009,07,05,00,45,16.70
2009,07,05,00,46,16.70
2009,07,05,00,47,16.70
2009,07,05,00,48,16.70
2009,07,05,00,49,16.70
2009,07,05,00,50,16.70
2009,07,05,00,51,16.70
2009,07,05,00,52,16.70
2009,07,05,00,53,16.70
2009,07,05,00,54,16.70
2009,07,05,00,55,16.70
2009,07,05,00,56,16.70
2009,07,05,00,57,16.70
2009,07,05,00,58,16.80
2009,07,05,00,59,16.80
2009,07,05,01,00,16.80
2009,07,05,01,01,16.80
2009,07,05,01,02,16.90
2009,07,05,01,03,16.90
2009,07,05,01,04,16.90
2009,07,05,01,05,16.90
2009,07,05,01,06,16.90
2009,07,05,01,07,16.90
2009,07,05,01,08,16.90
2009,07,05,01,09,16.90
2009,07,05,01,10,16.90
2009,07,05,01,11,16.90
2009,07,05,01,12,16.90
2009,07,05,01,13,16.90
2009,07,05,01,14,16.90
2009,07,05,01,15,16.90
2009,07,05,01,16,16.90
2009,07,05,01,17,16.90
2009,07,05,01,18,16.90
2009,07,05,01,19,16.90
2009,07,05,01,20,16.90
2009,07,05,01,21,16.90
2009,07,05,01,22,16.80
2009,07,05,01,23,16.80
2009,07,05,01,24,16.80
2009,07,05,01,25,16.80
2009,07,05,01,26,16.80
2009,07,05,01,27,16.80
2009,07,05,01,28,16.80
2009,07,05,01,29,16.80
2009,07,05,01,30,16.80
2009,07,05,01,31,16.80
2009,07,05,01,32,16.80
2009,07,05,01,33,16.80
2009,07,05,01,34,16.80
2009,07,05,01,35,16.80
2009,07,05,01,36,16.70
2009,07,05,01,37,16.70
2009,07,05,01,38,16.60
2009,07,05,01,39,16.60
2009,07,05,01,40,16.50
2009,07,05,01,41,16.40
2009,07,05,01,42,16.40
2009,07,05,01,43,16.40
2009,07,05,01,44,16.40
2009,07,05,01,45,16.40
2009,07,05,01,46,16.40
2009,07,05,01,47,16.40
2009,07,05,01,48,16.40
2009,07,05,01,49,16.40
2009,07,05,01,50,16.40
2009,07,05,01,51,16.40
2009,07,05,01,52,16.40
2009,07,05,01,53,16.40
2009,07,05,01,54,16.40
2009,07,05,01,55,16.40
2009,07,05,01,56,16.50
2009,07,05,01,57,16.60
2009,07,05,01,58,16.60
2009,07,05,01,59,16.40
2009,07,05,02,00,16.40
2009,07,05,02,01,16.40
2009,07,05,02,02,16.40
2009,07,05,02,03,16.40
2009,07,05,02,04,16.40
2009,07,05,02,05,16.40
2009,07,05,02,06,16.40
2009,07,05,02,07,16.40
2009,07,05,02,08,16.40
2009,07,05,02,09,16.40
2009,07,05,02,10,16.40
2009,07,05,02,11,16.40
2009,07,05,02,12,16.40
2009,07,05,02,13,16.40
2009,07,05,02,14,16.30
2009,07,05,02,15,16.30
2009,07,05,02,16,16.30
2009,07,05,02,17,16.30
2009,07,05,02,18,16.20
2009,07,05,02,19,16.20
2009,07,05,02,20,16.10
2009,07,05,02,21,16.10
2009,07,05,02,22,16.10
2009,07,05,02,23,16.10
2009,07,05,02,24,16.10
2009,07,05,02,25,16.10
2009,07,05,02,26,16.10
2009,07,05,02,27,16.10
2009,07,05,02,28,16.10
2009,07,05,02,29,16.10
2009,07,05,02,30,16.10
2009,07,05,02,31,16.10
2009,07,05,02,32,16.10
2009,07,05,02,33,16.10
2009,07,05,02,34,16.10
2009,07,05,02,35,16.10
2009,07,05,02,36,16.10
2009,07,05,02,37,16.10
2009,07,05,02,38,16.00
2009,07,05,02,39,15.90
2009,07,05,02,40,15.90
2009,07,05,02,41,15.90
2009,07,05,02,42,15.80
2009,07,05,02,43,15.80
2009,07,05,02,44,15.80
2009,07,05,02,45,15.80
2009,07,05,02,46,15.80
2009,07,05,02,47,15.80
2009,07,05,02,48,15.80
2009,07,05,02,49,15.70
2009,07,05,02,50,15.70
2009,07,05,02,51,15.70
2009,07,05,02,52,15.80
2009,07,05,02,53,15.80
2009,07,05,02,54,15.80
2009,07,05,02,55,15.90
2009,07,05,02,56,15.90
2009,07,05,02,57,15.90
2009,07,05,02,58,15.90
2009,07,05,02,59,15.80
2009,07,05,03,00,15.80
2009,07,05,03,01,15.80
2009,07,05,03,02,15.80
2009,07,05,03,03,15.80
2009,07,05,03,04,15.70
2009,07,05,03,05,15.70
2009,07,05,03,06,15.60
2009,07,05,03,07,15.60
2009,07,05,03,08,15.50
2009,07,05,03,09,15.40
2009,07,05,03,10,15.40
2009,07,05,03,11,15.40
2009,07,05,03,12,15.30
2009,07,05,03,13,15.30
2009,07,05,03,14,15.30
2009,07,05,03,15,15.30
2009,07,05,03,16,15.20
2009,07,05,03,17,15.10
2009,07,05,03,18,15.10
2009,07,05,03,19,15.00
2009,07,05,03,20,15.00
2009,07,05,03,21,14.90
2009,07,05,03,22,14.80
2009,07,05,03,23,14.80
2009,07,05,03,24,14.80
2009,07,05,03,25,14.80
2009,07,05,03,26,14.70
2009,07,05,03,27,14.70
2009,07,05,03,28,14.70
2009,07,05,03,29,14.60
2009,07,05,03,30,14.60
2009,07,05,03,31,14.60
2009,07,05,03,32,14.60
2009,07,05,03,33,14.50
2009,07,05,03,34,14.50
2009,07,05,03,35,14.50
2009,07,05,03,36,14.40
2009,07,05,03,37,14.40
2009,07,05,03,38,14.40
2009,07,05,03,39,14.40
2009,07,05,03,40,14.40
2009,07,05,03,41,14.30
2009,07,05,03,42,14.30
2009,07,05,03,43,14.30
2009,07,05,03,44,14.30
2009,07,05,03,45,14.30
2009,07,05,03,46,14.30
2009,07,05,03,47,14.30
2009,07,05,03,48,14.30
2009,07,05,03,49,14.30
2009,07,05,03,50,14.30
2009,07,05,03,51,14.30
2009,07,05,03,52,14.30
2009,07,05,03,53,14.30
2009,07,05,03,54,14.40
2009,07,05,03,55,14.40
2009,07,05,03,56,14.40
2009,07,05,03,57,14.40
2009,07,05,03,58,14.40
2009,07,05,03,59,14.40
2009,07,05,04,00,14.40
2009,07,05,04,01,14.40
2009,07,05,04,02,14.40
2009,07,05,04,03,14.40
2009,07,05,04,04,14.40
2009,07,05,04,05,14.40
2009,07,05,04,06,14.40
2009,07,05,04,07,14.40
2009,07,05,04,08,14.40
2009,07,05,04,09,14.40
2009,07,05,04,10,14.30
2009,07,05,04,11,14.30
2009,07,05,04,12,14.30
2009,07,05,04,13,14.30
2009,07,05,04,14,14.30
2009,07,05,04,15,14.30
2009,07,05,04,16,14.30
2009,07,05,04,17,14.30
2009,07,05,04,18,14.30
2009,07,05,04,19,14.30
2009,07,05,04,20,14.30
2009,07,05,04,21,14.30
2009,07,05,04,22,14.30
2009,07,05,04,23,14.30
2009,07,05,04,24,14.30
2009,07,05,04,25,14.30
2009,07,05,04,26,14.30
2009,07,05,04,27,14.30
2009,07,05,04,28,14.30
2009,07,05,04,29,14.20
2009,07,05,04,30,14.20
2009,07,05,04,31,14.20
2009,07,05,04,32,14.20
2009,07,05,04,33,14.20
2009,07,05,04,34,14.20
2009,07,05,04,35,14.20
2009,07,05,04,36,14.20
2009,07,05,04,37,14.30
2009,07,05,04,38,14.30
2009,07,05,04,39,14.30
2009,07,05,04,40,14.30
2009,07,05,04,41,14.30
2009,07,05,04,42,14.30
2009,07,05,04,43,14.30
2009,07,05,04,44,14.20
2009,07,05,04,45,14.20
2009,07,05,04,46,14.20
2009,07,05,04,47,14.10
2009,07,05,04,48,14.10
2009,07,05,04,49,14.10
2009,07,05,04,50,14.10
2009,07,05,04,51,14.10
2009,07,05,04,52,14.10
2009,07,05,04,53,14.10
2009,07,05,04,54,14.10
2009,07,05,04,55,14.10
2009,07,05,04,56,14.10
2009,07,05,04,57,14.10
2009,07,05,04,58,14.10
2009,07,05,04,59,14.10
2009,07,05,05,00,14.20
2009,07,05,05,01,14.20
2009,07,05,05,02,14.20
2009,07,05,05,03,14.20
2009,07,05,05,04,14.20
2009,07,05,05,05,14.20
2009,07,05,05,06,14.20
2009,07,05,05,07,14.20
2009,07,05,05,08,14.20
2009,07,05,05,09,14.20
2009,07,05,05,10,14.10
2009,07,05,05,11,14.10
2009,07,05,05,12,14.10
2009,07,05,05,13,14.00
2009,07,05,05,14,14.00
2009,07,05,05,15,14.00
2009,07,05,05,16,14.00
2009,07,05,05,17,14.00
2009,07,05,05,18,13.90
2009,07,05,05,19,13.90
2009,07,05,05,20,13.90
2009,07,05,05,21,14.00
2009,07,05,05,22,14.00
2009,07,05,05,23,14.00
2009,07,05,05,24,14.00
2009,07,05,05,25,14.00
2009,07,05,05,26,14.00
2009,07,05,05,27,14.10
2009,07,05,05,28,14.10
2009,07,05,05,29,14.10
2009,07,05,05,30,14.00
2009,07,05,05,31,14.00
2009,07,05,05,32,14.00
2009,07,05,05,33,14.00
2009,07,05,05,34,14.10
2009,07,05,05,35,14.10
2009,07,05,05,36,14.10
2009,07,05,05,37,14.10
2009,07,05,05,38,14.10
2009,07,05,05,39,14.20
2009,07,05,05,40,14.20
2009,07,05,05,41,14.20
2009,07,05,05,42,14.20
2009,07,05,05,43,14.20
2009,07,05,05,44,14.20
2009,07,05,05,45,14.30
2009,07,05,05,46,14.30
2009,07,05,05,47,14.40
2009,07,05,05,48,14.40
2009,07,05,05,49,14.40
2009,07,05,05,50,14.40
2009,07,05,05,51,14.40
2009,07,05,05,52,14.50
2009,07,05,05,53,14.50
2009,07,05,05,54,14.50
2009,07,05,05,55,14.60
2009,07,05,05,56,14.60
2009,07,05,05,57,14.60
2009,07,05,05,58,14.60
2009,07,05,05,59,14.60
2009,07,05,06,00,14.70
2009,07,05,06,01,14.70
2009,07,05,06,02,14.70
2009,07,05,06,03,14.70
2009,07,05,06,04,14.80
2009,07,05,06,05,14.80
2009,07,05,06,06,14.80
2009,07,05,06,07,14.80
2009,07,05,06,08,14.80
2009,07,05,06,09,14.80
2009,07,05,06,10,14.80
2009,07,05,06,11,14.80
2009,07,05,06,12,14.80
2009,07,05,06,13,14.80
2009,07,05,06,14,14.90
2009,07,05,06,15,14.90
2009,07,05,06,16,14.90
2009,07,05,06,17,14.90
2009,07,05,06,18,14.90
2009,07,05,06,19,14.90
2009,07,05,06,20,14.90
2009,07,05,06,21,14.90
2009,07,05,06,22,14.90
2009,07,05,06,23,14.90
2009,07,05,06,24,14.90
2009,07,05,06,25,14.90
2009,07,05,06,26,14.90
2009,07,05,06,27,15.00
2009,07,05,06,28,15.00
2009,07,05,06,29,15.00
2009,07,05,06,30,15.00
2009,07,05,06,31,15.00
2009,07,05,06,32,15.00
2009,07,05,06,33,15.00
2009,07,05,06,34,15.10
2009,07,05,06,35,15.10
2009,07,05,06,36,15.10
2009,07,05,06,37,15.10
2009,07,05,06,38,15.20
2009,07,05,06,39,15.20
2009,07,05,06,40,15.20
2009,07,05,06,41,15.20
2009,07,05,06,42,15.30
2009,07,05,06,43,15.30
2009,07,05,06,44,15.30
2009,07,05,06,45,15.30
2009,07,05,06,46,15.30
2009,07,05,06,47,15.40
2009,07,05,06,48,15.40
2009,07,05,06,49,15.40
2009,07,05,06,50,15.40
2009,07,05,06,51,15.50
2009,07,05,06,52,15.50
2009,07,05,06,53,15.50
2009,07,05,06,54,15.50
2009,07,05,06,55,15.50
2009,07,05,06,56,15.50
2009,07,05,06,57,15.50
2009,07,05,06,58,15.50
2009,07,05,06,59,15.50
2009,07,05,07,00,15.50
2009,07,05,07,01,15.50
2009,07,05,07,02,15.50
2009,07,05,07,03,15.50
2009,07,05,07,04,15.50
2009,07,05,07,05,15.50
2009,07,05,07,06,15.50
2009,07,05,07,07,15.50
2009,07,05,07,08,15.50
2009,07,05,07,09,15.50
2009,07,05,07,10,15.50
2009,07,05,07,11,15.50
2009,07,05,07,12,15.50
2009,07,05,07,13,15.50
2009,07,05,07,14,15.50
2009,07,05,07,15,15.50
2009,07,05,07,16,15.50
2009,07,05,07,17,15.60
2009,07,05,07,18,15.60
2009,07,05,07,19,15.70
2009,07,05,07,20,15.80
2009,07,05,07,21,15.90
2009,07,05,07,22,16.00
2009,07,05,07,23,16.10
2009,07,05,07,24,16.20
2009,07,05,07,25,16.30
2009,07,05,07,26,16.30
2009,07,05,07,27,16.40
2009,07,05,07,28,16.40
2009,07,05,07,29,16.50
2009,07,05,07,30,16.60
2009,07,05,07,31,16.70
2009,07,05,07,32,16.70
2009,07,05,07,33,16.70
2009,07,05,07,34,16.80
2009,07,05,07,35,16.90
2009,07,05,07,36,16.90
2009,07,05,07,37,17.00
2009,07,05,07,38,17.10
2009,07,05,07,39,17.10
2009,07,05,07,40,17.20
2009,07,05,07,41,17.30
2009,07,05,07,42,17.30
2009,07,05,07,43,17.30
2009,07,05,07,44,17.40
2009,07,05,07,45,17.40
2009,07,05,07,46,17.50
2009,07,05,07,47,17.50
2009,07,05,07,48,17.60
2009,07,05,07,49,17.70
2009,07,05,07,50,17.70
2009,07,05,07,51,17.80
2009,07,05,07,52,17.80
2009,07,05,07,53,17.90
2009,07,05,07,54,17.90
2009,07,05,07,55,17.90
2009,07,05,07,56,18.10
2009,07,05,07,57,18.10
2009,07,05,07,58,18.20
2009,07,05,07,59,18.30
2009,07,05,08,00,18.40
2009,07,05,08,01,18.50
2009,07,05,08,02,18.60
2009,07,05,08,03,18.70
2009,07,05,08,04,18.80
2009,07,05,08,05,18.90
2009,07,05,08,06,18.90
2009,07,05,08,07,19.00
2009,07,05,08,08,19.10
2009,07,05,08,09,19.10
2009,07,05,08,10,19.20
2009,07,05,08,11,19.20
2009,07,05,08,12,19.30
2009,07,05,08,13,19.30
2009,07,05,08,14,19.30
2009,07,05,08,15,19.40
2009,07,05,08,16,19.40
2009,07,05,08,17,19.40
2009,07,05,08,18,19.40
2009,07,05,08,19,19.40
2009,07,05,08,20,19.40
2009,07,05,08,21,19.50
2009,07,05,08,22,19.50
2009,07,05,08,23,19.50
2009,07,05,08,24,19.50
2009,07,05,08,25,19.50
2009,07,05,08,26,19.50
2009,07,05,08,27,19.50
2009,07,05,08,28,19.60
2009,07,05,08,29,19.60
2009,07,05,08,30,19.60
2009,07,05,08,31,19.60
2009,07,05,08,32,19.70
2009,07,05,08,33,19.70
2009,07,05,08,34,19.70
2009,07,05,08,35,19.70
2009,07,05,08,36,19.70
2009,07,05,08,37,19.70
2009,07,05,08,38,19.70
2009,07,05,08,39,19.70
2009,07,05,08,40,19.70
2009,07,05,08,41,19.70
2009,07,05,08,42,19.70
2009,07,05,08,43,19.70
2009,07,05,08,44,19.70
2009,07,05,08,45,19.70
2009,07,05,08,46,19.70
2009,07,05,08,47,19.70
2009,07,05,08,48,19.80
2009,07,05,08,49,19.80
2009,07,05,08,50,19.90
2009,07,05,08,51,19.90
2009,07,05,08,52,19.90
2009,07,05,08,53,20.00
2009,07,05,08,54,20.10
2009,07,05,08,55,20.10
2009,07,05,08,56,19.90
2009,07,05,08,57,19.90
2009,07,05,08,58,19.90
2009,07,05,08,59,19.90
2009,07,05,09,00,19.90
2009,07,05,09,01,19.90
2009,07,05,09,02,19.90
2009,07,05,09,03,19.90
2009,07,05,09,04,19.90
2009,07,05,09,05,19.90
2009,07,05,09,06,19.90
2009,07,05,09,07,20.00
2009,07,05,09,08,20.00
2009,07,05,09,09,20.10
2009,07,05,09,10,20.10
2009,07,05,09,11,20.10
2009,07,05,09,12,20.10
2009,07,05,09,13,20.10
2009,07,05,09,14,20.10
2009,07,05,09,15,20.20
2009,07,05,09,16,20.20
2009,07,05,09,17,20.20
2009,07,05,09,18,20.20
2009,07,05,09,19,20.20
2009,07,05,09,20,20.20
2009,07,05,09,21,20.20
2009,07,05,09,22,20.20
2009,07,05,09,23,20.20
2009,07,05,09,24,20.20
2009,07,05,09,25,20.20
2009,07,05,09,26,20.20
2009,07,05,09,27,20.30
2009,07,05,09,28,20.30
2009,07,05,09,29,20.40
2009,07,05,09,30,20.40
2009,07,05,09,31,20.40
2009,07,05,09,32,20.50
2009,07,05,09,33,20.50
2009,07,05,09,34,20.50
2009,07,05,09,35,20.50
2009,07,05,09,36,20.50
2009,07,05,09,37,20.50
2009,07,05,09,38,20.50
2009,07,05,09,39,20.50
2009,07,05,09,40,20.50
2009,07,05,09,41,20.50
2009,07,05,09,42,20.50
2009,07,05,09,43,20.50
2009,07,05,09,44,20.50
2009,07,05,09,45,20.50
2009,07,05,09,46,20.60
2009,07,05,09,47,20.60
2009,07,05,09,48,20.70
2009,07,05,09,49,20.70
2009,07,05,09,50,20.70
2009,07,05,09,51,20.80
2009,07,05,09,52,20.90
2009,07,05,09,53,20.90
2009,07,05,09,54,20.90
2009,07,05,09,55,20.90
2009,07,05,09,56,20.80
2009,07,05,09,57,20.80
2009,07,05,09,58,20.70
2009,07,05,09,59,20.70
2009,07,05,10,00,20.70
2009,07,05,10,01,20.70
2009,07,05,10,02,20.70
2009,07,05,10,03,20.80
2009,07,05,10,04,20.90
2009,07,05,10,05,20.90
2009,07,05,10,06,20.90
2009,07,05,10,07,20.90
2009,07,05,10,08,20.90
2009,07,05,10,09,20.90
2009,07,05,10,10,20.90
2009,07,05,10,11,20.90
2009,07,05,10,12,21.00
2009,07,05,10,13,21.00
2009,07,05,10,14,21.20
2009,07,05,10,15,21.20
2009,07,05,10,16,21.30
2009,07,05,10,17,21.30
2009,07,05,10,18,21.40
2009,07,05,10,19,21.40
2009,07,05,10,20,21.40
2009,07,05,10,21,21.40
2009,07,05,10,22,21.40
2009,07,05,10,23,21.40
2009,07,05,10,24,21.40
2009,07,05,10,25,21.40
2009,07,05,10,26,21.60
2009,07,05,10,27,21.60
2009,07,05,10,28,21.60
2009,07,05,10,29,21.60
2009,07,05,10,30,21.60
2009,07,05,10,31,21.60
2009,07,05,10,32,21.60
2009,07,05,10,33,21.60
2009,07,05,10,34,21.60
2009,07,05,10,35,21.70
2009,07,05,10,36,21.70
2009,07,05,10,37,21.70
2009,07,05,10,38,21.70
2009,07,05,10,39,21.70
2009,07,05,10,40,21.60
2009,07,05,10,41,21.60
2009,07,05,10,42,21.60
2009,07,05,10,43,21.70
2009,07,05,10,44,21.80
2009,07,05,10,45,21.80
2009,07,05,10,46,21.90
2009,07,05,10,47,22.00
2009,07,05,10,48,22.00
2009,07,05,10,49,22.00
2009,07,05,10,50,22.10
2009,07,05,10,51,22.10
2009,07,05,10,52,22.20
2009,07,05,10,53,22.30
2009,07,05,10,54,22.40
2009,07,05,10,55,22.50
2009,07,05,10,56,22.60
2009,07,05,10,57,22.60
2009,07,05,10,58,22.60
2009,07,05,10,59,22.50
2009,07,05,11,00,22.50
2009,07,05,11,01,22.50
2009,07,05,11,02,22.50
2009,07,05,11,03,22.50
2009,07,05,11,04,22.50
2009,07,05,11,05,22.60
2009,07,05,11,06,22.60
2009,07,05,11,07,22.60
2009,07,05,11,08,22.70
2009,07,05,11,09,22.70
2009,07,05,11,10,22.80
2009,07,05,11,11,22.70
2009,07,05,11,12,22.70
2009,07,05,11,13,22.80
2009,07,05,11,14,22.80
2009,07,05,11,15,22.90
2009,07,05,11,16,22.90
2009,07,05,11,17,22.90
2009,07,05,11,18,22.90
2009,07,05,11,19,22.90
2009,07,05,11,20,23.00
2009,07,05,11,21,23.10
2009,07,05,11,22,23.10
2009,07,05,11,23,23.10
2009,07,05,11,24,23.20
2009,07,05,11,25,23.20
2009,07,05,11,26,23.20
2009,07,05,11,27,23.20
2009,07,05,11,28,23.10
2009,07,05,11,29,22.70
2009,07,05,11,30,22.30
2009,07,05,11,31,21.90
2009,07,05,11,32,21.60
2009,07,05,11,33,21.40
2009,07,05,11,34,21.30
2009,07,05,11,35,21.30
2009,07,05,11,36,21.30
2009,07,05,11,37,21.30
2009,07,05,11,38,21.30
2009,07,05,11,39,21.10
2009,07,05,11,40,21.00
2009,07,05,11,41,20.80
2009,07,05,11,42,20.70
2009,07,05,11,43,20.60
2009,07,05,11,44,20.60
2009,07,05,11,45,20.50
2009,07,05,11,46,20.50
2009,07,05,11,47,20.40
2009,07,05,11,48,20.50
2009,07,05,11,49,20.50
2009,07,05,11,50,20.50
2009,07,05,11,51,20.60
2009,07,05,11,52,20.70
2009,07,05,11,53,20.70
2009,07,05,11,54,20.80
2009,07,05,11,55,20.80
2009,07,05,11,56,20.80
2009,07,05,11,57,20.80
2009,07,05,11,58,20.80
2009,07,05,11,59,20.80
2009,07,05,12,00,20.70
2009,07,05,12,01,20.60
2009,07,05,12,02,20.50
2009,07,05,12,03,20.50
2009,07,05,12,04,20.50
2009,07,05,12,05,20.40
2009,07,05,12,06,20.50
2009,07,05,12,07,20.60
2009,07,05,12,08,20.60
2009,07,05,12,09,20.60
2009,07,05,12,10,20.70
2009,07,05,12,11,20.80
2009,07,05,12,12,20.90
2009,07,05,12,13,21.00
2009,07,05,12,14,21.00
2009,07,05,12,15,21.10
2009,07,05,12,16,21.10
2009,07,05,12,17,21.10
2009,07,05,12,18,21.20
2009,07,05,12,19,21.20
2009,07,05,12,20,21.30
2009,07,05,12,21,21.30
2009,07,05,12,22,21.30
2009,07,05,12,23,21.30
2009,07,05,12,24,21.30
2009,07,05,12,25,21.30
2009,07,05,12,26,21.30
2009,07,05,12,27,21.30
2009,07,05,12,28,21.30
2009,07,05,12,29,21.30
2009,07,05,12,30,21.30
2009,07,05,12,31,21.30
2009,07,05,12,32,21.30
2009,07,05,12,33,21.40
2009,07,05,12,34,21.50
2009,07,05,12,35,21.50
2009,07,05,12,36,21.50
2009,07,05,12,37,21.50
2009,07,05,12,38,21.40
2009,07,05,12,39,21.30
2009,07,05,12,40,21.10
2009,07,05,12,41,21.00
2009,07,05,12,42,21.00
2009,07,05,12,43,21.10
2009,07,05,12,44,21.20
2009,07,05,12,45,21.30
2009,07,05,12,46,21.30
2009,07,05,12,47,21.30
2009,07,05,12,48,21.30
2009,07,05,12,49,21.30
2009,07,05,12,50,21.30
2009,07,05,12,51,21.30
2009,07,05,12,52,21.30
2009,07,05,12,53,21.20
2009,07,05,12,54,21.10
2009,07,05,12,55,21.00
2009,07,05,12,56,20.80
2009,07,05,12,57,20.70
2009,07,05,12,58,20.70
2009,07,05,12,59,20.60
2009,07,05,13,00,20.70
2009,07,05,13,01,20.80
2009,07,05,13,02,20.80
2009,07,05,13,03,20.80
2009,07,05,13,04,20.80
2009,07,05,13,05,20.80
2009,07,05,13,06,20.80
2009,07,05,13,07,20.90
2009,07,05,13,08,21.00
2009,07,05,13,09,21.10
2009,07,05,13,10,21.10
2009,07,05,13,11,21.20
2009,07,05,13,12,21.30
2009,07,05,13,13,21.50
2009,07,05,13,14,21.60
2009,07,05,13,15,21.50
2009,07,05,13,16,21.40
2009,07,05,13,17,21.40
2009,07,05,13,18,21.50
2009,07,05,13,19,21.60
2009,07,05,13,20,21.60
2009,07,05,13,21,21.60
2009,07,05,13,22,21.60
2009,07,05,13,23,21.70
2009,07,05,13,24,21.90
2009,07,05,13,25,22.10
2009,07,05,13,26,22.10
2009,07,05,13,27,22.10
2009,07,05,13,28,22.30
2009,07,05,13,29,22.40
2009,07,05,13,30,22.50
2009,07,05,13,31,22.50
2009,07,05,13,32,22.50
2009,07,05,13,33,22.50
2009,07,05,13,34,22.60
2009,07,05,13,35,22.70
2009,07,05,13,36,22.90
2009,07,05,13,37,23.10
2009,07,05,13,38,23.30
2009,07,05,13,39,23.30
2009,07,05,13,40,23.40
2009,07,05,13,41,23.50
2009,07,05,13,42,23.60
2009,07,05,13,43,23.70
2009,07,05,13,44,23.80
2009,07,05,13,45,23.90
2009,07,05,13,46,24.10
2009,07,05,13,47,24.10
2009,07,05,13,48,24.10
2009,07,05,13,49,24.10
2009,07,05,13,50,24.20
2009,07,05,13,51,24.20
2009,07,05,13,52,24.30
2009,07,05,13,53,24.30
2009,07,05,13,54,24.40
2009,07,05,13,55,24.40
2009,07,05,13,56,24.40
2009,07,05,13,57,24.30
2009,07,05,13,58,24.30
2009,07,05,13,59,24.20
2009,07,05,14,00,24.00
2009,07,05,14,01,23.90
2009,07,05,14,02,23.90
2009,07,05,14,03,23.90
2009,07,05,14,04,23.90
2009,07,05,14,05,23.90
2009,07,05,14,06,23.90
2009,07,05,14,07,23.90
2009,07,05,14,08,23.90
2009,07,05,14,09,23.80
2009,07,05,14,10,23.80
2009,07,05,14,11,24.00
2009,07,05,14,12,24.10
2009,07,05,14,13,24.10
2009,07,05,14,14,24.20
2009,07,05,14,15,24.10
2009,07,05,14,16,24.10
2009,07,05,14,17,24.00
2009,07,05,14,18,23.70
2009,07,05,14,19,23.40
2009,07,05,14,20,23.30
2009,07,05,14,21,23.30
2009,07,05,14,22,23.30
2009,07,05,14,23,23.30
2009,07,05,14,24,23.40
2009,07,05,14,25,23.50
2009,07,05,14,26,23.60
2009,07,05,14,27,23.60
2009,07,05,14,28,23.60
2009,07,05,14,29,23.60
2009,07,05,14,30,23.70
2009,07,05,14,31,23.70
2009,07,05,14,32,23.70
2009,07,05,14,33,23.60
2009,07,05,14,34,23.40
2009,07,05,14,35,23.30
2009,07,05,14,36,23.30
2009,07,05,14,37,23.20
2009,07,05,14,38,23.10
2009,07,05,14,39,23.00
2009,07,05,14,40,23.00
2009,07,05,14,41,23.10
2009,07,05,14,42,23.20
2009,07,05,14,43,23.30
2009,07,05,14,44,23.30
2009,07,05,14,45,23.30
2009,07,05,14,46,23.30
2009,07,05,14,47,23.30
2009,07,05,14,48,23.30
2009,07,05,14,49,23.10
2009,07,05,14,50,23.00
2009,07,05,14,51,22.90
2009,07,05,14,52,22.90
2009,07,05,14,53,22.80
2009,07,05,14,54,22.90
2009,07,05,14,55,22.90
2009,07,05,14,56,23.00
2009,07,05,14,57,22.90
2009,07,05,14,58,23.00
2009,07,05,14,59,23.10
2009,07,05,15,00,23.20
2009,07,05,15,01,23.30
2009,07,05,15,02,23.30
2009,07,05,15,03,23.30
2009,07,05,15,04,23.30
2009,07,05,15,05,23.10
2009,07,05,15,06,22.90
2009,07,05,15,07,22.60
2009,07,05,15,08,22.60
2009,07,05,15,09,22.60
2009,07,05,15,10,22.60
2009,07,05,15,11,22.60
2009,07,05,15,12,22.70
2009,07,05,15,13,22.70
2009,07,05,15,14,22.80
2009,07,05,15,15,22.80
2009,07,05,15,16,22.80
2009,07,05,15,17,22.80
2009,07,05,15,18,22.70
2009,07,05,15,19,22.70
2009,07,05,15,20,22.70
2009,07,05,15,21,22.60
2009,07,05,15,22,22.60
2009,07,05,15,23,22.60
2009,07,05,15,24,22.70
2009,07,05,15,25,22.70
2009,07,05,15,26,22.80
2009,07,05,15,27,22.90
2009,07,05,15,28,23.00
2009,07,05,15,29,23.10
2009,07,05,15,30,23.20
2009,07,05,15,31,23.20
2009,07,05,15,32,23.10
2009,07,05,15,33,23.00
2009,07,05,15,34,22.90
2009,07,05,15,35,22.80
2009,07,05,15,36,22.70
2009,07,05,15,37,22.60
2009,07,05,15,38,22.60
2009,07,05,15,39,22.60
2009,07,05,15,40,22.70
2009,07,05,15,41,22.70
2009,07,05,15,42,22.70
2009,07,05,15,43,22.80
2009,07,05,15,44,22.70
2009,07,05,15,45,22.70
2009,07,05,15,46,22.60
2009,07,05,15,47,22.60
2009,07,05,15,48,22.70
2009,07,05,15,49,22.80
2009,07,05,15,50,22.90
2009,07,05,15,51,22.90
2009,07,05,15,52,22.80
2009,07,05,15,53,22.80
2009,07,05,15,54,22.80
2009,07,05,15,55,22.90
2009,07,05,15,56,23.00
2009,07,05,15,57,23.00
2009,07,05,15,58,22.90
2009,07,05,15,59,22.90
2009,07,05,16,00,22.90
2009,07,05,16,01,22.90
2009,07,05,16,02,23.00
2009,07,05,16,03,23.10
2009,07,05,16,04,23.20
2009,07,05,16,05,23.20
2009,07,05,16,06,23.10
2009,07,05,16,07,23.00
2009,07,05,16,08,22.90
2009,07,05,16,09,22.80
2009,07,05,16,10,22.70
2009,07,05,16,11,22.70
2009,07,05,16,12,22.60
2009,07,05,16,13,22.70
2009,07,05,16,14,22.70
2009,07,05,16,15,22.80
2009,07,05,16,16,22.80
2009,07,05,16,17,22.90
2009,07,05,16,18,22.90
2009,07,05,16,19,22.90
2009,07,05,16,20,22.90
2009,07,05,16,21,22.80
2009,07,05,16,22,22.80
2009,07,05,16,23,22.80
2009,07,05,16,24,22.90
2009,07,05,16,25,23.00
2009,07,05,16,26,23.10
2009,07,05,16,27,23.10
2009,07,05,16,28,23.20
2009,07,05,16,29,23.30
2009,07,05,16,30,23.30
2009,07,05,16,31,23.30
2009,07,05,16,32,23.40
2009,07,05,16,33,23.50
2009,07,05,16,34,23.60
2009,07,05,16,35,23.60
2009,07,05,16,36,23.50
2009,07,05,16,37,23.40
2009,07,05,16,38,23.40
2009,07,05,16,39,23.50
2009,07,05,16,40,23.60
2009,07,05,16,41,23.70
2009,07,05,16,42,23.80
2009,07,05,16,43,23.80
2009,07,05,16,44,23.80
2009,07,05,16,45,23.70
2009,07,05,16,46,23.70
2009,07,05,16,47,23.70
2009,07,05,16,48,23.60
2009,07,05,16,49,23.60
2009,07,05,16,50,23.70
2009,07,05,16,51,23.70
2009,07,05,16,52,23.70
2009,07,05,16,53,23.70
2009,07,05,16,54,23.70
2009,07,05,16,55,23.70
2009,07,05,16,56,23.70
2009,07,05,16,57,23.80
2009,07,05,16,58,23.80
2009,07,05,16,59,23.90
2009,07,05,17,00,23.90
2009,07,05,17,01,23.80
2009,07,05,17,02,23.80
2009,07,05,17,03,23.90
2009,07,05,17,04,23.90
2009,07,05,17,05,23.90
2009,07,05,17,06,23.90
2009,07,05,17,07,23.90
2009,07,05,17,08,23.80
2009,07,05,17,09,23.80
2009,07,05,17,10,23.80
2009,07,05,17,11,23.70
2009,07,05,17,12,23.70
2009,07,05,17,13,23.70
2009,07,05,17,14,23.70
2009,07,05,17,15,23.70
2009,07,05,17,16,23.70
2009,07,05,17,17,23.70
2009,07,05,17,18,23.70
2009,07,05,17,19,23.70